Terminal Aerodrome Forecast
Issued by NWS Chicago, IL

Home | Current Version | Previous Version | Graphics & Text | Print | Product List | Glossary On
Versions: 1 2 3 4 5 6 7 8 9 10 11 12 13 14 15 16 17 18 19 20
763
FTUS43 KLOT 211131
TAFRFD
TAF
KRFD 211131Z 2112/2212 09006KT P6SM FEW040 OVC060
      TEMPO 2114/2117 -RA
     FM212300 08005KT P6SM OVC100=

USA.gov is the U.S. government's official web portal to all federal, state and local government web resources and services.